Location: Knowlton
(51.2333°N, 1.2667°E)
Time: 03:51:04
(UTC+00:00)

Meteor 2-10 Rocket - Pass Details

Date: 18 April 2021
Orbit: 735 x 884 km, 81.2° (Epoch: 06 May)

Event Time Altitude Azimuth Distance (km) Brightness Sun altitude
Rises 19:36:35 0° 185° (S) 3,225 6.5 -6.6°
Reaches altitude 10° 19:38:53 10° 183° (S) 2,322 5.8 -6.9°
Maximum altitude 19:44:06 75° 99° (E) 834 3.6 -7.7°
Drops below altitude 10° 19:49:36 10° 16° (NNE) 2,439 6.3 -8.4°
Sets 19:52:04 0° 14° (NNE) 3,400 7.1 -8.7°
